Location: Newark
(30.1000°N, 109.4667°E)
Time: 04:40:02
(UTC+00:00)

Vanguard 2 Rocket - Pass Details

Date: 18 February 2020
Orbit: 554 x 3326 km, 32.9° (Epoch: 04 April)

Event Time Altitude Azimuth Distance (km) Brightness Sun altitude
Rises 11:17:21 0° 222° (SW) 7,303 12.3 -10.4°
Reaches altitude 10° 11:22:42 10° 217° (SW) 6,244 11.8 -11.5°
Maximum altitude 11:40:43 48° 150° (SSE) 3,294 9.5 -15.4°
Enters shadow 11:49:50 22° 90° (E) 3,789 9.4 -17.4°
